Location: Ammerl�gen
(47.2167°N, 9.6000°E)
Time: 09:40:00
(UTC+00:00)

Cosmos 1500 Rocket - Pass Details

Date: 21 April 2021
Orbit: 604 x 630 km, 82.5° (Epoch: 06 May)

Event Time Altitude Azimuth Distance (km) Brightness Sun altitude
Rises 21:48:14 0° 347° (NNW) 2,933 8.2 -27.2°
Reaches altitude 10° 21:50:30 10° 343° (NNW) 2,019 7.2 -27.3°
Enters shadow 21:54:14 51° 301° (WNW) 797 4.3 -27.6°
